When you browse on this site, cookies collect data to enhance your experience and personalize the content and advertising you see.
Visit our Privacy Policy to learn more. By continuing to use the site, you agree to this use of cookies and data.
  • In Lithuania
  • List of Countries
  • For 7 days
  • Water Temperature
  • Weather Map
  • Weather Widgets
  • user-avatar
    Login

    Hourly Weather Brasília

    Today, 20 January, Monday

    Time Temperature Precipitation Wind Pressure Humidity
    00:00 +20°C° 0.6 mm 0 mps 665 mmHg 82%
    01:00 +20°C° 0.1 mm 0 mps 665 mmHg 83%
    02:00 +22°C° 0.1 mm 1 mps 664 mmHg 84%
    03:00 +21°C° 0 mm 1 mps 664 mmHg 86%
    04:00 +21°C° 0.6 mm 1 mps 664 mmHg 86%
    05:00 +19°C° 0.6 mm 0 mps 664 mmHg 87%
    06:00 +19°C° 0.6 mm 0 mps 664 mmHg 87%
    07:00 +23°C° 0.6 mm 1 mps 665 mmHg 84%
    08:00 +24°C° 0.6 mm 1 mps 665 mmHg 81%
    09:00 +24°C° 0 mm 0 mps 666 mmHg 76%
    10:00 +27°C° 0.4 mm 1 mps 666 mmHg 72%
    11:00 +28°C° 0.4 mm 2 mps 666 mmHg 67%
    12:00 +28°C° 0.4 mm 3 mps 666 mmHg 63%
    13:00 +29°C° 0.3 mm 3 mps 665 mmHg 63%
    14:00 +29°C° 0.3 mm 3 mps 664 mmHg 63%
    15:00 +29°C° 0.3 mm 3 mps 664 mmHg 63%
    16:00 +28°C° 1.1 mm 2 mps 663 mmHg 70%
    17:00 +27°C° 1.1 mm 2 mps 663 mmHg 77%
    18:00 +25°C° 1.1 mm 2 mps 662 mmHg 84%
    19:00 +24°C° 1 mm 1 mps 663 mmHg 85%
    20:00 +24°C° 1 mm 1 mps 663 mmHg 86%
    21:00 +23°C° 1 mm 1 mps 663 mmHg 87%
    22:00 +23°C° 0.7 mm 1 mps 663 mmHg 88%
    23:00 +21°C° 0.7 mm 2 mps 663 mmHg 88%

    Tomorrow, 21 January, Tuesday

    Time Temperature Precipitation Wind Pressure Humidity
    00:00 +21°C° 0.7 mm 2 mps 664 mmHg 89%
    01:00 +21°C° 1.2 mm 2 mps 663 mmHg 89%
    02:00 +21°C° 1.2 mm 2 mps 663 mmHg 90%
    03:00 +21°C° 1.2 mm 2 mps 662 mmHg 90%
    04:00 +20°C° 0.2 mm 2 mps 662 mmHg 90%
    05:00 +20°C° 0.2 mm 2 mps 662 mmHg 91%
    06:00 +20°C° 0.2 mm 2 mps 662 mmHg 92%
    07:00 +21°C° 1 mm 2 mps 663 mmHg 88%
    08:00 +24°C° 1 mm 3 mps 663 mmHg 85%
    09:00 +25°C° 1 mm 3 mps 664 mmHg 82%
    10:00 +26°C° 1 mm 4 mps 664 mmHg 80%
    11:00 +26°C° 1 mm 4 mps 664 mmHg 78%
    12:00 +27°C° 1 mm 4 mps 664 mmHg 76%
    13:00 +27°C° 1.3 mm 4 mps 663 mmHg 76%
    14:00 +27°C° 1.3 mm 4 mps 662 mmHg 76%
    15:00 +27°C° 1.3 mm 4 mps 662 mmHg 76%
    16:00 +26°C° 1.6 mm 4 mps 661 mmHg 80%
    17:00 +25°C° 1.6 mm 4 mps 661 mmHg 84%
    18:00 +24°C° 1.6 mm 3 mps 661 mmHg 88%
    19:00 +22°C° 2.3 mm 3 mps 661 mmHg 89%
    20:00 +22°C° 2.3 mm 3 mps 662 mmHg 90%
    21:00 +21°C° 2.3 mm 3 mps 662 mmHg 91%
    22:00 +21°C° 1.5 mm 2 mps 662 mmHg 92%
    23:00 +21°C° 1.5 mm 2 mps 662 mmHg 93%

    Day after tomorrow, 22 January, Wednesday

    Time Temperature Precipitation Wind Pressure Humidity
    00:00 +21°C° 1.5 mm 2 mps 662 mmHg 94%
    01:00 +21°C° 0.9 mm 2 mps 662 mmHg 93%
    02:00 +21°C° 0.9 mm 3 mps 661 mmHg 93%
    03:00 +20°C° 0.9 mm 3 mps 661 mmHg 92%
    04:00 +20°C° 0.2 mm 3 mps 661 mmHg 93%
    05:00 +20°C° 0.2 mm 3 mps 661 mmHg 94%
    06:00 +20°C° 0.2 mm 3 mps 661 mmHg 95%
    07:00 +20°C° 0.2 mm 3 mps 662 mmHg 94%
    08:00 +20°C° 0.2 mm 3 mps 662 mmHg 94%
    09:00 +21°C° 0.2 mm 4 mps 663 mmHg 94%
    10:00 +21°C° 0.6 mm 4 mps 663 mmHg 94%
    11:00 +21°C° 0.6 mm 4 mps 663 mmHg 94%
    12:00 +21°C° 0.6 mm 4 mps 663 mmHg 94%
    13:00 +21°C° 2.1 mm 4 mps 662 mmHg 94%
    14:00 +20°C° 2.1 mm 4 mps 662 mmHg 94%
    15:00 +20°C° 2.1 mm 5 mps 661 mmHg 94%
    16:00 +20°C° 0.3 mm 5 mps 661 mmHg 93%
    17:00 +20°C° 0.3 mm 5 mps 661 mmHg 92%
    18:00 +20°C° 0.3 mm 5 mps 661 mmHg 91%
    19:00 +20°C° 0 mm 5 mps 661 mmHg 92%
    20:00 +20°C° 0 mm 5 mps 661 mmHg 92%
    21:00 +19°C° 0 mm 4 mps 661 mmHg 93%
    22:00 +19°C° 0 mm 4 mps 662 mmHg 93%
    23:00 +19°C° 0 mm 4 mps 662 mmHg 92%

    23 January, Thursday

    Time Temperature Precipitation Wind Pressure Humidity
    00:00 +19°C° 0 mm 4 mps 662 mmHg 92%
    01:00 +19°C° 0 mm 4 mps 662 mmHg 92%
    02:00 +19°C° 0 mm 4 mps 661 mmHg 92%
    03:00 +19°C° 0 mm 4 mps 661 mmHg 91%
    04:00 +19°C° 0 mm 4 mps 661 mmHg 92%
    05:00 +19°C° 0 mm 4 mps 662 mmHg 93%
    06:00 +19°C° 0 mm 3 mps 662 mmHg 93%
    07:00 +20°C° 0 mm 4 mps 662 mmHg 91%
    08:00 +21°C° 0 mm 4 mps 663 mmHg 89%
    09:00 +21°C° 0 mm 4 mps 663 mmHg 87%
    10:00 +22°C° 0.3 mm 5 mps 663 mmHg 86%
    11:00 +23°C° 0.3 mm 5 mps 663 mmHg 85%
    12:00 +23°C° 0.3 mm 5 mps 663 mmHg 83%
    13:00 +22°C° 0.9 mm 5 mps 662 mmHg 87%
    14:00 +21°C° 0.9 mm 6 mps 662 mmHg 90%
    15:00 +21°C° 0.9 mm 6 mps 661 mmHg 93%
    16:00 +20°C° 0.3 mm 5 mps 661 mmHg 93%
    17:00 +20°C° 0.3 mm 5 mps 661 mmHg 93%
    18:00 +20°C° 0.3 mm 5 mps 661 mmHg 94%
    19:00 +20°C° 1.3 mm 5 mps 661 mmHg 94%
    20:00 +20°C° 1.3 mm 5 mps 661 mmHg 95%
    21:00 +20°C° 1.3 mm 5 mps 662 mmHg 95%
    22:00 +20°C° 1.6 mm 5 mps 662 mmHg 95%
    23:00 +20°C° 1.6 mm 5 mps 662 mmHg 96%

    24 January, Friday

    Time Temperature Precipitation Wind Pressure Humidity
    00:00 +20°C° 1.6 mm 5 mps 662 mmHg 96%
    01:00 +20°C° 3.7 mm 5 mps 661 mmHg 96%
    02:00 +20°C° 3.7 mm 5 mps 661 mmHg 96%
    03:00 +20°C° 3.7 mm 5 mps 660 mmHg 96%
    04:00 +19°C° 1.1 mm 5 mps 660 mmHg 96%
    05:00 +19°C° 1.1 mm 5 mps 661 mmHg 96%
    06:00 +19°C° 1.1 mm 5 mps 661 mmHg 95%
    07:00 +20°C° 2 mm 5 mps 661 mmHg 95%
    08:00 +20°C° 2 mm 6 mps 662 mmHg 95%
    09:00 +20°C° 2 mm 6 mps 662 mmHg 95%
    10:00 +20°C° 2.7 mm 6 mps 662 mmHg 95%
    11:00 +20°C° 2.7 mm 6 mps 662 mmHg 95%
    12:00 +19°C° 2.7 mm 6 mps 663 mmHg 96%
    13:00 +19°C° 2.1 mm 6 mps 662 mmHg 96%
    14:00 +19°C° 2.1 mm 6 mps 662 mmHg 96%
    15:00 +20°C° 2.1 mm 5 mps 662 mmHg 96%
    16:00 +19°C° 1.5 mm 5 mps 662 mmHg 96%
    17:00 +19°C° 1.5 mm 6 mps 662 mmHg 96%
    18:00 +19°C° 1.5 mm 6 mps 662 mmHg 96%
    19:00 +19°C° 0.4 mm 6 mps 662 mmHg 96%
    20:00 +19°C° 0.4 mm 5 mps 663 mmHg 96%
    21:00 +19°C° 0.4 mm 5 mps 663 mmHg 96%
    22:00 +19°C° 0.5 mm 5 mps 663 mmHg 96%
    23:00 +19°C° 0.5 mm 5 mps 663 mmHg 96%

    25 January, Saturday

    Time Temperature Precipitation Wind Pressure Humidity
    00:00 +19°C° 0.5 mm 5 mps 664 mmHg 96%
    01:00 +19°C° 0.4 mm 5 mps 663 mmHg 96%
    02:00 +19°C° 0.4 mm 5 mps 663 mmHg 95%
    03:00 +19°C° 0.4 mm 5 mps 663 mmHg 95%
    04:00 +19°C° 0.6 mm 5 mps 663 mmHg 95%
    05:00 +19°C° 0.6 mm 5 mps 663 mmHg 95%
    06:00 +19°C° 0.6 mm 5 mps 663 mmHg 95%
    07:00 +19°C° 0.4 mm 5 mps 664 mmHg 95%
    08:00 +19°C° 0.4 mm 5 mps 665 mmHg 95%
    09:00 +19°C° 0.4 mm 5 mps 665 mmHg 95%
    10:00 +19°C° 1.2 mm 5 mps 665 mmHg 95%
    11:00 +19°C° 1.2 mm 5 mps 665 mmHg 95%
    12:00 +19°C° 1.2 mm 4 mps 665 mmHg 95%
    13:00 +19°C° 1.6 mm 4 mps 665 mmHg 95%
    14:00 +19°C° 1.6 mm 4 mps 664 mmHg 94%
    15:00 +20°C° 1.6 mm 4 mps 664 mmHg 94%
    16:00 +19°C° 0.4 mm 4 mps 664 mmHg 95%
    17:00 +19°C° 0.4 mm 3 mps 664 mmHg 95%
    18:00 +19°C° 0.4 mm 3 mps 664 mmHg 95%
    19:00 +19°C° 0 mm 3 mps 664 mmHg 95%
    20:00 +19°C° 0 mm 3 mps 664 mmHg 94%
    21:00 +18°C° 0 mm 3 mps 665 mmHg 93%
    22:00 +18°C° 0.1 mm 3 mps 665 mmHg 93%
    23:00 +18°C° 0.1 mm 2 mps 665 mmHg 93%
    Show more